Погода в Лесном

Россия / Камчатский край     53°15′24″N   158°01′37″E
темп.,
°C
ветер,
м/с
пор.,
м/с
влажн.,
%
обл.,
%
осадки,
мм/ч
давл.,
гПа
погр.,
м
28 ноября, вс
вс2800:00−8с229691 1.6 100161
03:00−14зсз229094 0.1 100311
06:00−14зсз229298 0.3 100312
09:00−15з329291 0.1 100516
12:00−12з338157 0.1 1004101
15:00−12з43875 0.0 1004147
18:00−16з439541 0.0 100620
21:00−18з439772 0.0 100822
29 ноября, пн
пн2900:00−20з539869 0.0 100926
03:00−21з54855 0.0 101028
06:00−20з548064 0.0 101132
09:00−17з5478100 0.0 101144
12:00−12з4480100 0.0 1011107
15:00−10з4487100 0.0 1010152
18:00−12з4393100 0.0 101231
21:00−12з4394100 0.0 101232
30 ноября, вт
вт3000:00−12з3394100 0.0 101231
03:00−12з2294100 0.0 101110
06:00−10с1189100 0.0 100814
09:00−9ссв2396100 1.0 1007102
12:00−8зсз2293100 2.9 1007210
15:00−7зюз448872 0.2 1008352
18:00−12зюз549356 0.2 101327
21:00−11з611886 0.0 1016158
1 декабря, ср
ср100:00−13з55938 0.0 102037
03:00−15зюз449759 0.0 102219
06:00−16зюз439873 0.0 102515
09:00−14зюз339699 0.1 102517
12:00−8юз1393100 0.3 1025151
15:00−6ююв1292100 0.3 1024198
18:00−8в1197100 0.5 102338
21:00−9всв3396100 3.5 1021120
2 декабря, чт
чт200:00−8вюв1196100 5.6 101864
03:00−6св2296100 2.6 101390
06:00−5всв3398100 3.9 100996
09:00−4всв1297100 5.4 100366
12:00−1всв1299100 17.6 99760
15:00−2всв2299100 10.9 99183
18:00+1з4599100 13.9 987161
21:00−2зюз71493100 2.7 989892